DateTimeUTC,F1_A11,F1_S11,BsB_S11,BsG_S11,BsR_S11,BbsB_S11,BbsG_S11,BbsR_S11,BaB_A11,BaG_A11,BaR_A11,Tu_S11,T_S11,Uu_S11,U_S11,P_S11,T1_A11
2021-10-12T12:00:00Z,00000200,21000000,,,,,,,0000.11,0000.27,-000.28,16.7,24.0,,00.0,0670.5,30.9
2021-10-12T12:01:00Z,00000200,21000000,,,,,,,-000.01,0000.06,0000.38,16.7,24.0,,00.0,0670.5,30.9
2021-10-12T12:02:00Z,00000200,21000000,,,,,,,0000.29,0000.29,-000.01,16.7,24.0,,00.0,0670.5,30.9
2021-10-12T12:03:00Z,00000200,61000000,,,,,,,0000.39,0000.04,0000.24,16.7,24.0,,00.0,0670.5,31.0
2021-10-12T12:04:00Z,00000200,41000000,0003.59,0002.07,0000.67,0000.66,0000.05,-000.21,0000.56,0000.78,0000.47,17.1,23.9,,00.0,0671.4,31.0
2021-10-12T12:05:00Z,00000200,01000000,0003.54,0002.00,0000.98,0000.03,0000.37,0000.08,0000.67,0000.60,0000.20,17.2,23.9,,00.0,0671.5,31.0
2021-10-12T12:06:00Z,00000200,01000000,0003.40,0001.69,0000.87,-000.04,0000.18,0000.01,0000.84,0000.55,0000.38,17.2,23.9,,00.0,0671.4,31.0
2021-10-12T12:07:00Z,00000200,01000000,0003.22,0001.74,0000.93,0000.40,0000.28,-000.20,0000.17,0000.28,0000.20,17.2,23.9,,00.0,0671.5,30.9
2021-10-12T12:08:00Z,00000200,01000000,0003.82,0001.83,0000.96,-000.28,0000.12,-000.05,0000.52,0000.24,0000.47,17.2,23.8,,00.0,0671.4,30.9
2021-10-12T12:09:00Z,00000200,01000000,0002.80,0001.95,0000.89,0000.73,0000.57,-000.13,0000.80,0000.64,0000.58,17.2,23.8,,00.0,0671.4,31.0
2021-10-12T12:10:00Z,00000200,01000000,0004.06,0002.07,0000.93,0000.05,0000.15,-000.03,0000.35,0000.68,0000.23,17.1,23.8,,00.0,0671.4,30.9
2021-10-12T12:11:00Z,00000200,01000000,0003.49,0001.98,0000.80,0000.79,0000.01,-000.15,0000.53,0000.31,0000.21,17.1,23.8,,00.0,0671.4,30.9
2021-10-12T12:12:00Z,00000200,01000000,0003.30,0001.92,0000.73,0000.11,-000.08,0000.03,0000.69,0000.57,0000.58,17.0,23.7,,00.0,0671.4,30.9
2021-10-12T12:13:00Z,00000200,01000000,0003.34,0001.68,0000.74,0000.37,0000.43,-000.10,0000.74,0000.93,0000.29,17.0,23.7,,00.0,0671.4,30.9
2021-10-12T12:14:00Z,00000200,01000000,0003.17,0002.05,0001.00,0000.70,0000.27,-000.04,0000.57,0000.49,0000.51,17.1,23.7,,00.0,0671.4,30.9
2021-10-12T12:15:00Z,00000200,01000000,0003.30,0001.72,0001.26,0000.45,0000.46,-000.05,0000.38,0000.14,0000.41,17.1,23.7,,00.0,0671.4,31.0
2021-10-12T12:16:00Z,00000200,01000000,0003.17,0001.78,0000.70,0000.09,0000.27,0000.01,0000.75,0000.40,0000.12,17.2,23.8,,00.0,0671.4,31.0
2021-10-12T12:17:00Z,00000200,01000000,0002.96,0001.69,0000.63,0000.44,0000.14,0000.07,0000.10,0000.57,0000.38,17.2,23.8,,00.0,0671.4,31.0
2021-10-12T12:18:00Z,00000200,01000000,0003.19,0001.47,0000.71,0000.58,0000.11,0000.06,0000.60,0000.41,0000.14,17.3,23.8,,00.0,0671.3,31.0
2021-10-12T12:19:00Z,00000200,01000000,0002.48,0001.07,0000.73,0000.04,0000.32,0000.38,0000.63,0000.88,0000.87,17.4,23.9,,00.0,0671.3,31.0
2021-10-12T12:20:00Z,00000200,01000000,0003.54,0001.86,0001.07,0000.49,0000.15,0000.53,0000.50,0000.44,0000.13,17.4,23.9,,00.0,0671.3,31.0
2021-10-12T12:21:00Z,00000200,01000000,0003.06,0002.17,0000.64,0000.63,0000.05,-000.01,0000.67,0000.42,0000.14,17.5,23.9,,00.0,0671.3,31.0
2021-10-12T12:22:00Z,00000200,01000000,0003.24,0001.86,0001.14,0000.11,0000.10,0000.05,0000.53,0000.21,0000.24,17.5,23.9,,00.0,0671.2,31.0
2021-10-12T12:23:00Z,00000200,01000000,0002.96,0001.74,0001.02,0000.39,0000.32,0000.40,0000.12,0000.05,-000.02,17.4,23.9,,00.0,0671.2,31.0
2021-10-12T12:24:00Z,00000200,01000000,0002.70,0001.24,0000.77,0000.63,0000.25,0000.07,0000.52,0000.41,0000.50,17.4,23.9,,00.0,0671.2,31.0
2021-10-12T12:25:00Z,00000200,01000000,0003.36,0001.85,0000.51,0000.72,0000.04,0000.17,0000.76,0000.87,0000.45,17.3,23.9,,00.0,0671.2,30.9
2021-10-12T12:26:00Z,00000200,01000000,0003.04,0001.82,0000.43,0000.56,0000.07,-000.29,0000.78,0000.46,0000.14,17.3,23.9,,00.0,0671.2,30.9
2021-10-12T12:27:00Z,00000200,01000000,0003.33,0001.73,0001.06,0000.30,0000.20,0000.20,0000.09,0000.49,0000.69,17.3,23.8,,00.0,0671.2,31.0
2021-10-12T12:28:00Z,00000200,01000000,0003.01,0001.55,0000.77,-000.04,0000.01,-000.13,0001.14,0000.81,0000.36,17.3,23.8,,00.0,0671.2,31.0
2021-10-12T12:29:00Z,00000200,01000000,0003.39,0001.46,0000.74,0001.11,0000.34,0000.46,0000.32,0000.22,0000.45,17.3,23.9,,00.0,0671.2,31.0
2021-10-12T12:30:00Z,00000200,01000000,0001.90,0001.70,0000.42,0000.47,0000.00,-000.00,0000.25,0000.40,0000.04,17.3,23.9,,00.0,0671.2,31.0
2021-10-12T12:31:00Z,00000200,01000000,0003.40,0001.71,0000.86,0000.32,0000.45,-000.01,0000.81,0000.55,0000.27,17.4,23.9,,00.0,0671.2,31.0
2021-10-12T12:32:00Z,00000200,01000000,0002.57,0001.49,0000.61,0000.15,0000.17,0000.08,0000.57,0000.66,0000.82,17.4,23.9,,00.0,0671.2,31.0
2021-10-12T12:33:00Z,00000200,01000000,0003.12,0001.91,0000.74,0000.73,0000.03,-000.09,0000.55,0000.42,0000.02,17.5,23.9,,00.0,0671.2,31.0
2021-10-12T12:34:00Z,00000200,01000000,0003.09,0001.50,0000.78,0000.75,0000.07,0000.09,0000.07,0000.32,0000.44,17.5,24.0,,00.0,0671.2,31.0
2021-10-12T12:35:00Z,00000200,01000000,0002.61,0001.59,0000.70,0000.56,0000.26,-000.10,0000.63,-000.02,0000.03,17.6,24.0,,00.0,0671.2,31.0
2021-10-12T12:36:00Z,00000200,01000000,0002.60,0001.35,0000.70,0000.31,0000.04,0000.03,-000.06,0000.32,0000.00,17.5,24.0,,00.0,0671.2,31.0
2021-10-12T12:37:00Z,00000200,01000000,0002.11,0001.48,0000.39,0000.21,-000.04,-000.21,0000.54,0000.50,0000.30,17.5,24.0,,00.0,0671.2,31.0
2021-10-12T12:38:00Z,00000200,01000000,0002.17,0001.28,0000.55,-000.37,0000.15,0000.15,0000.59,0000.40,0000.29,17.4,24.0,,00.0,0671.1,31.0
2021-10-12T12:39:00Z,00000200,01000000,0002.03,0001.30,0000.31,-000.58,0000.45,0000.02,0000.14,-000.01,0000.23,17.3,23.9,,00.0,0671.1,30.9
2021-10-12T12:40:00Z,00000200,01000000,0001.64,0001.23,0000.52,0000.15,0000.39,0000.01,0000.72,0000.65,0000.20,17.3,23.9,,00.0,0671.1,30.9
2021-10-12T12:41:00Z,00000200,01000000,0001.89,0001.64,0000.95,0000.40,-000.01,0000.23,0000.11,0000.40,0000.08,17.2,23.9,,00.0,0671.0,30.9
2021-10-12T12:42:00Z,00000200,01000000,0003.00,0001.47,0000.51,0000.40,0000.09,-000.08,0000.94,0000.79,0000.86,17.2,23.8,,00.0,0671.0,30.9
2021-10-12T12:43:00Z,00000200,01000000,0001.71,0001.08,0000.46,0000.30,0000.12,0000.06,0000.40,0000.18,0000.45,17.2,23.8,,00.0,0671.1,30.9
2021-10-12T12:44:00Z,00000200,01000000,0002.20,0001.16,0000.53,-000.30,-000.06,0000.08,0000.37,0000.40,0000.51,17.3,23.8,,00.0,0671.0,30.9
2021-10-12T12:45:00Z,00000200,01000000,0001.43,0001.14,0000.77,-000.39,-000.03,0000.19,0000.58,0000.72,0000.01,17.3,23.8,,00.0,0671.0,30.9
2021-10-12T12:46:00Z,00000200,01000000,0002.64,0001.55,0001.01,0000.27,0000.28,0000.00,0000.51,0000.21,0000.44,17.4,23.9,,00.0,0671.0,30.9
2021-10-12T12:47:00Z,00000200,01000000,0002.82,0001.85,0000.94,0000.06,-000.07,0000.07,0000.36,0000.71,0000.38,17.5,23.9,,00.0,0671.1,31.0
2021-10-12T12:48:00Z,00000200,01000000,0003.41,0001.45,0000.57,0000.75,0000.09,0000.14,0000.51,0000.25,0000.33,17.6,23.9,,00.0,0671.1,31.0
2021-10-12T12:49:00Z,00000200,01000000,0002.41,0001.31,0000.99,0000.02,0000.63,0000.22,0000.20,-000.04,-000.20,17.6,24.0,,00.0,0671.1,31.0
2021-10-12T12:50:00Z,00000200,01000000,0002.45,0001.59,0000.81,-000.26,0000.42,0000.02,0000.46,0000.32,0000.23,17.7,24.0,,00.0,0671.1,31.0
2021-10-12T12:51:00Z,00000200,01000000,0003.42,0001.23,0000.86,0000.64,0000.22,0000.07,-000.09,0000.13,-000.11,17.7,24.0,,00.0,0671.1,31.0
2021-10-12T12:52:00Z,00000200,01000000,0002.33,0001.52,0000.82,0000.32,0000.24,0000.07,0000.00,0000.20,0000.02,17.6,24.0,,00.0,0671.1,31.0
2021-10-12T12:53:00Z,00000200,01000000,0002.45,0001.51,0000.40,0000.19,0000.20,0000.28,0000.76,0000.73,0000.57,17.5,24.0,,00.0,0671.0,30.9
2021-10-12T12:54:00Z,00000200,01000000,0002.63,0001.17,0000.63,0000.24,0000.10,-000.29,0000.08,-000.15,0000.21,17.5,24.0,,00.0,0671.1,30.9
2021-10-12T12:55:00Z,00000200,01000000,0003.23,0001.44,0000.77,0000.90,0000.49,-000.06,0000.31,0000.29,-000.05,17.4,23.9,,00.0,0671.0,30.9
2021-10-12T12:56:00Z,00000200,01000000,0002.13,0001.77,0000.63,-000.16,0000.56,0000.04,0001.09,0000.28,0000.36,17.4,23.9,,00.0,0671.0,30.9
2021-10-12T12:57:00Z,00000200,41000000,,,,,,,-000.67,0000.03,-000.03,17.4,23.9,,00.0,0671.0,30.9
2021-10-12T12:58:00Z,00000200,61000000,,,,,,,0000.46,0000.24,0000.26,17.0,24.0,,00.0,0670.0,30.9
2021-10-12T12:59:00Z,00000200,21000000,,,,,,,0000.25,0000.14,0000.04,17.0,24.1,,00.0,0670.0,30.9
